Regional Weather Roundup
Issued by NWS

Home | Current Version | Previous Version | Graphics & Text | Print | Product List | Glossary On
Versions: 1 2 3 4 5 6 7 8 9 10 11 12 13 14 15 16 17 18 19 20 21 22 23 24 25 26 27 28 29 30 31 32 33 34 35 36 37 38 39 40 41 42 43 44 45 46 47 48 49 50
000
ASUS43 KIND 031209
RWRIN

WEATHER ROUNDUP FOR INDIANA
NATIONAL WEATHER SERVICE INDIANAPOLIS IN
700 AM EST TUE MAR 03 2015

NOTE: "FAIR" INDICATES FEW OR NO CLOUDS BELOW 12,000 FEET WITH NO
SIGNIFICANT WEATHER AND/OR OBSTRUCTIONS TO VISIBILITY.

* - STATION DOES NOT REPORT WEATHER SUCH AS PRECIPITATION OR FOG.

+ - STATION NOT QUALITY CONTROLLED BY THE NATIONAL WEATHER SERVICE.
    USE DATA WITH CAUTION...ESPECIALLY DEWPOINT AND RELATIVE
    HUMIDITY OBSERVATIONS.

INZ001>003-010>013-019-020-031300-
NORTHWEST INDIANA

CITY           SKY/WX    TMP DP  RH WIND       PRES   REMARKS
GARY /AIRPORT/ FLURRIES  28  19  69 S10       30.03F WCI  19
KNOX *+          N/A     27  14  59 SE12      30.04F WCI  16
LA PORTE +     MIX PCPN  28  23  83 SE8       30.06F WCI  19
6HR MIN TEMP:  27; 6HR MAX TEMP:  28; 6HR PCP:  0.01;

MICHIGAN CITY+ MIX PCPN  27  19  74 SE5       30.06F WCI  21
MONTICELLO +   CLOUDY    26  23  86 SE5       30.07F WCI  21
6HR MIN TEMP:  25; 6HR MAX TEMP:  27; 6HR PCP:  0.01;

RENSSELAER +   CLOUDY    28  27  93 SE12      30.04F FOG     WCI  18
VALPARAISO     CLOUDY    25  20  81 SE8       30.03F WCI  16
6HR MIN TEMP:  24; 6HR MAX TEMP:  26; 6HR PCP:  0.02;


$$

LMZ046-743>745-031300-
SOUTHERN LAKE MICHIGAN

STATION/POSITION TIME  TEMP WIND        PRES
                       AIR  DIR/SP/G
                 (UTC) (F)  (DEG/KT/KT) (MB)
MICHIGAN CITY    1200   24  130/  9/ 12   N/A

$$

INZ004-005-014>016-021>024-031300-
NORTH CENTRAL INDIANA

CITY           SKY/WX    TMP DP  RH WIND       PRES   REMARKS
ELKHART        LGT SNOW  25  16  68 SE9       30.09  WCI  15
GOSHEN         LGT SNOW  24  17  74 SE6       30.09F WCI  17
6HR MIN TEMP:  24; 6HR MAX TEMP:  25; 6HR PCP:  0.02;

LOGANSPORT +   CLOUDY    27  23  86 SE6       30.09F WCI  20
PERU/GRISSOM   CLOUDY    26  20  80 SE8       30.05F WCI  17
6HR MIN TEMP:  24; 6HR MAX TEMP:  26; 6HR PCP:  0.01;

ROCHESTER +    CLOUDY    30  25  80 SE8       30.08F WCI  23
SOUTH BEND     LGT SNOW  25  19  78 SE14      30.04F WCI  13
6HR MIN TEMP:  25; 6HR MAX TEMP:  26; 6HR PCP:  0.03;

WARSAW +       MIX PCPN  27  21  80 SE5       30.08F WCI  21

$$

INZ006>009-017-018-025>027-031300-
NORTHEAST INDIANA

CITY           SKY/WX    TMP DP  RH WIND       PRES   REMARKS
ANGOLA *+      MOCLDY    21  16  79 SE5       30.11F WCI  15
AUBURN +       LGT SNOW  25  19  80 SE5       30.12F WCI  19
FORT WAYNE     FRZ RAIN  25  20  81 SE10      30.12F WCI  15
6HR MIN TEMP:  22; 6HR MAX TEMP:  25; 6HR PCP:  0.05;

HUNTINGTON +   CLOUDY    26  18  73 SE7       30.09R WCI  18
6HR MIN TEMP:  23; 6HR MAX TEMP:  26; 6HR PCP:  0.02;


$$

INZ028-029-035-036-043>045-051>053-031300-
WEST CENTRAL INDIANA

CITY           SKY/WX    TMP DP  RH WIND       PRES   REMARKS
CRAWFORDSVL +  CLOUDY    26  16  64 E8        30.03F WCI  18
6HR MIN TEMP:  24; 6HR MAX TEMP:  26;

GREENCASTLE +  CLOUDY    28  18  64 E7        30.04F WCI  21
LAFAYETTE      CLOUDY    27  22  81 SE8       30.04F WCI  19
6HR MIN TEMP:  24; 6HR MAX TEMP:  28; 6HR PCP:  0.01;

TERRE HAUTE    CLOUDY    31  21  66 SE9       30.03F WCI  23
6HR MIN TEMP:  27; 6HR MAX TEMP:  31; 6HR PCP: TRACE;


$$

INZ030>032-037>040-046>048-054>057-064-065-031300-
CENTRAL INDIANA

CITY           SKY/WX    TMP DP  RH WIND       PRES   REMARKS
CP ATTERBURY + CLOUDY    30  19  64 S8        30.08F WCI  23
FRANKFORT +    CLOUDY    28  23  83 E9        30.07F WCI  19
6HR MIN TEMP:  24; 6HR MAX TEMP:  29;

GREENWOOD *+   CLOUDY    28  18  64 SE6       30.07F WCI  22
INDIANAPOLIS   CLOUDY    28  18  66 SE9       30.05F WCI  19
6HR MIN TEMP:  26; 6HR MAX TEMP:  28; 6HR PCP: TRACE;

-EAGLE CREEK   CLOUDY    28  19  69 SE7       30.06F WCI  21
6HR MIN TEMP:  26; 6HR MAX TEMP:  28; 6HR PCP:  0.01;

KOKOMO *+      CLOUDY    27  19  74 SE10      30.06F WCI  17
6HR MIN TEMP:  25; 6HR MAX TEMP:  27;

MARION +       CLOUDY    26  20  75 SE9       30.08F WCI  17
MT COMFORT *+  CLOUDY    27  12  54 SE7       30.08F WCI  19
SHELBYVILLE    NOT AVBL
ZIONSVILLE +   CLOUDY    28  19  69 SE7       30.07F WCI  20
6HR MIN TEMP:  25; 6HR MAX TEMP:  28;


$$

INZ033-034-041-042-049-050-058-059-031300-
EAST CENTRAL INDIANA

CITY           SKY/WX    TMP DP  RH WIND       PRES   REMARKS
MUNCIE         CLOUDY    28  20  71 SE9       30.07F WCI  19
6HR MIN TEMP:  22; 6HR MAX TEMP:  28; 6HR PCP:  0.01;


$$

INZ060-061-067>069-081>083-085>088-031300-
SOUTHWEST INDIANA

CITY           SKY/WX    TMP DP  RH WIND       PRES   REMARKS
EVANSVILLE     CLOUDY    36  25  64 SE7       30.06F
6HR MIN TEMP:  34; 6HR MAX TEMP:  36;

HUNTINGBURG *+ CLOUDY    36  23  60 SE8       30.07F
6HR MIN TEMP:  30; 6HR MAX TEMP:  36;

WASHINGTON +   CLOUDY    32  24  70 SE9       30.04F WCI  24
6HR MIN TEMP:  27; 6HR MAX TEMP:  32;


$$

INZ062-063-066-070>080-084-089>092-031300-
SOUTH CENTRAL AND SOUTHEAST INDIANA

CITY           SKY/WX    TMP DP  RH WIND       PRES   REMARKS
BLOOMINGTON    CLOUDY    31  20  63 SE9       30.05F WCI  23
6HR MIN TEMP:  27; 6HR MAX TEMP:  31;

NORTH VERNON + CLOUDY    32  18  55 S7        30.10S WCI  26
SEYMOUR +      CLOUDY    32  21  64 SE7       30.07F WCI  26

$$



USA.gov is the U.S. government's official web portal to all federal, state and local government web resources and services.